Volver al catálogo

THORAD AGENA D DEB

ActivoLEO
NORAD 4211·DEBRIS·🇺🇸 United States

Lanzado Sep 30, 1969 desde Vandenberg Space Force Base

Loading…

Próximos Pases (próximas 24 horas)

TLE

ActualizadoSource: Space-Track

Época: Sep 14, 2026, 07:09 UTC

1 04211U 69082CA  26257.29819378  .00000099  00000-0  84169-4 0  9992
2 04211  70.0714 203.3888 0034125 226.3885 133.4397 14.11487326925609

Sigue THORAD AGENA D DEB en tiempo real con AllMySat

Download on the App Store